Time,TemperatureF,DewpointF,PressureIn,WindDirection,WindDirectionDegrees,WindSpeedMPH,WindSpeedGustMPH,Humidity,HourlyPrecipIn,Conditions,Clouds,dailyrainin,SoftwareType,DateUTC
2013-06-12 00:00:00,83.5,29.8,27.30,NE,45,0.0,0.0,15,0.00,,,0.00,WUHU216HW,2013-06-12 07:00:00,
2013-06-12 00:05:00,83.5,29.8,27.30,NE,45,0.0,0.0,15,0.00,,,0.00,WUHU216HW,2013-06-12 07:05:00,
2013-06-12 00:10:00,83.5,29.8,27.30,NE,45,0.0,0.0,15,0.00,,,0.00,WUHU216HW,2013-06-12 07:10:00,
2013-06-12 00:30:00,81.7,28.5,27.31,ENE,68,0.0,0.0,15,0.00,,,0.00,WUHU216HW,2013-06-12 07:30:00,
2013-06-12 00:35:00,81.7,28.5,27.31,ENE,68,0.0,0.0,15,0.00,,,0.00,WUHU216HW,2013-06-12 07:35:00,
2013-06-12 00:40:00,81.7,28.5,27.31,ENE,68,0.0,0.0,15,0.00,,,0.00,WUHU216HW,2013-06-12 07:40:00,
2013-06-12 01:00:00,80.8,29.3,27.31,NE,45,0.0,0.0,16,0.00,,,0.00,WUHU216HW,2013-06-12 08:00:00,
2013-06-12 01:05:00,80.8,29.3,27.31,ENE,68,0.2,0.2,16,0.00,,,0.00,WUHU216HW,2013-06-12 08:05:00,
2013-06-12 01:10:00,80.8,29.3,27.31,ENE,68,0.2,0.2,16,0.00,,,0.00,WUHU216HW,2013-06-12 08:10:00,
2013-06-12 01:30:00,79.6,28.3,27.30,NE,45,0.0,0.0,16,0.00,,,0.00,WUHU216HW,2013-06-12 08:30:00,
2013-06-12 01:35:00,79.6,28.3,27.30,NE,45,0.0,0.0,16,0.00,,,0.00,WUHU216HW,2013-06-12 08:35:00,
2013-06-12 01:40:00,79.6,28.3,27.30,NE,45,0.0,0.0,16,0.00,,,0.00,WUHU216HW,2013-06-12 08:40:00,
2013-06-12 02:00:00,78.7,29.3,27.31,ESE,113,0.0,0.0,17,0.00,,,0.00,WUHU216HW,2013-06-12 09:00:00,
2013-06-12 02:05:00,78.5,29.1,27.31,ESE,113,0.0,0.0,17,0.00,,,0.00,WUHU216HW,2013-06-12 09:05:00,
2013-06-12 02:10:00,78.5,29.1,27.31,ESE,113,0.0,0.0,17,0.00,,,0.00,WUHU216HW,2013-06-12 09:10:00,
2013-06-12 02:30:00,77.4,29.9,27.31,NE,45,0.4,0.4,18,0.00,,,0.00,WUHU216HW,2013-06-12 09:30:00,
2013-06-12 02:35:00,77.4,29.9,27.31,NE,45,0.4,0.4,18,0.00,,,0.00,WUHU216HW,2013-06-12 09:35:00,
2013-06-12 02:40:00,77.4,29.9,27.31,NE,45,0.4,0.4,18,0.00,,,0.00,WUHU216HW,2013-06-12 09:40:00,
2013-06-12 03:00:00,76.7,32.7,27.32,ESE,113,0.0,0.0,20,0.00,,,0.00,WUHU216HW,2013-06-12 10:00:00,
2013-06-12 03:05:00,76.7,32.7,27.31,ESE,113,0.0,0.0,20,0.00,,,0.00,WUHU216HW,2013-06-12 10:05:00,
2013-06-12 03:10:00,76.7,32.7,27.31,ESE,113,0.0,0.0,20,0.00,,,0.00,WUHU216HW,2013-06-12 10:10:00,
2013-06-12 03:30:00,74.5,37.1,27.32,ESE,113,0.0,0.0,26,0.00,,,0.00,WUHU216HW,2013-06-12 10:30:00,
2013-06-12 03:35:00,74.5,37.1,27.32,ESE,113,0.0,0.0,26,0.00,,,0.00,WUHU216HW,2013-06-12 10:35:00,
2013-06-12 03:40:00,74.5,37.1,27.32,ESE,113,0.0,0.0,26,0.00,,,0.00,WUHU216HW,2013-06-12 10:40:00,
2013-06-12 04:00:00,73.8,33.4,27.32,ENE,68,0.0,0.0,23,0.00,,,0.00,WUHU216HW,2013-06-12 11:00:00,
2013-06-12 04:05:00,73.8,33.4,27.32,ENE,68,0.0,0.0,23,0.00,,,0.00,WUHU216HW,2013-06-12 11:05:00,
2013-06-12 04:10:00,73.8,33.4,27.32,ENE,68,0.0,0.0,23,0.00,,,0.00,WUHU216HW,2013-06-12 11:10:00,
2013-06-12 04:30:00,73.1,32.8,27.33,NE,45,0.0,0.0,23,0.00,,,0.00,WUHU216HW,2013-06-12 11:30:00,
2013-06-12 04:35:00,73.1,32.8,27.33,NE,45,0.0,0.0,23,0.00,,,0.00,WUHU216HW,2013-06-12 11:35:00,
2013-06-12 04:40:00,73.1,32.8,27.33,NE,45,0.0,0.0,23,0.00,,,0.00,WUHU216HW,2013-06-12 11:40:00,
2013-06-12 05:00:00,72.5,32.3,27.34,East,90,0.0,0.0,23,0.00,,,0.00,WUHU216HW,2013-06-12 12:00:00,
2013-06-12 05:05:00,72.5,32.3,27.34,East,90,0.0,0.0,23,0.00,,,0.00,WUHU216HW,2013-06-12 12:05:00,
2013-06-12 05:10:00,72.5,32.3,27.34,East,90,0.0,0.0,23,0.00,,,0.00,WUHU216HW,2013-06-12 12:10:00,
2013-06-12 05:30:00,72.4,33.1,27.35,NE,45,0.0,0.0,24,0.00,,,0.00,WUHU216HW,2013-06-12 12:30:00,
2013-06-12 05:35:00,72.4,33.1,27.35,NE,45,0.0,0.0,24,0.00,,,0.00,WUHU216HW,2013-06-12 12:35:00,
2013-06-12 05:40:00,72.4,33.1,27.35,NE,45,0.0,0.0,24,0.00,,,0.00,WUHU216HW,2013-06-12 12:40:00,
2013-06-12 06:00:00,72.2,34.0,27.36,ENE,68,0.0,0.0,25,0.00,,,0.00,WUHU216HW,2013-06-12 13:00:00,
2013-06-12 06:05:00,72.2,35.0,27.36,ENE,68,0.0,0.0,26,0.00,,,0.00,WUHU216HW,2013-06-12 13:05:00,
2013-06-12 06:10:00,72.2,35.0,27.36,ENE,68,0.0,0.0,26,0.00,,,0.00,WUHU216HW,2013-06-12 13:10:00,
2013-06-12 06:30:00,74.0,35.6,27.37,NNE,23,0.0,0.0,25,0.00,,,0.00,WUHU216HW,2013-06-12 13:30:00,
2013-06-12 06:35:00,74.2,35.7,27.37,North,0,0.0,0.0,25,0.00,,,0.00,WUHU216HW,2013-06-12 13:35:00,
2013-06-12 06:40:00,74.2,35.7,27.37,North,0,0.0,0.0,25,0.00,,,0.00,WUHU216HW,2013-06-12 13:40:00,
2013-06-12 07:00:00,77.0,36.1,27.38,NE,45,0.0,0.0,23,0.00,,,0.00,WUHU216HW,2013-06-12 14:00:00,
2013-06-12 07:05:00,77.0,36.1,27.38,NE,45,0.0,0.0,23,0.00,,,0.00,WUHU216HW,2013-06-12 14:05:00,
2013-06-12 07:10:00,77.0,36.1,27.38,NE,45,0.0,0.0,23,0.00,,,0.00,WUHU216HW,2013-06-12 14:10:00,
2013-06-12 07:30:00,81.2,34.7,27.39,North,0,0.7,0.7,19,0.00,,,0.00,WUHU216HW,2013-06-12 14:30:00,
2013-06-12 07:35:00,81.2,34.7,27.39,North,0,0.7,0.7,19,0.00,,,0.00,WUHU216HW,2013-06-12 14:35:00,
2013-06-12 07:40:00,81.2,34.7,27.39,North,0,0.7,0.7,19,0.00,,,0.00,WUHU216HW,2013-06-12 14:40:00,
2013-06-12 08:00:00,84.2,35.5,27.40,ENE,68,0.4,0.4,18,0.00,,,0.00,WUHU216HW,2013-06-12 15:00:00,
2013-06-12 08:05:00,84.2,35.5,27.40,ENE,68,0.4,0.4,18,0.00,,,0.00,WUHU216HW,2013-06-12 15:05:00,
2013-06-12 08:10:00,84.2,35.5,27.40,ENE,68,0.4,0.4,18,0.00,,,0.00,WUHU216HW,2013-06-12 15:10:00,
2013-06-12 08:30:00,87.3,34.6,27.40,NE,45,1.1,1.1,16,0.00,,,0.00,WUHU216HW,2013-06-12 15:30:00,
2013-06-12 08:35:00,87.5,34.8,27.40,ENE,68,1.1,1.1,16,0.00,,,0.00,WUHU216HW,2013-06-12 15:35:00,
2013-06-12 08:40:00,87.5,34.8,27.40,ENE,68,1.1,1.1,16,0.00,,,0.00,WUHU216HW,2013-06-12 15:40:00,
2013-06-12 09:00:00,90.5,35.4,27.39,ENE,68,1.8,1.8,15,0.00,,,0.00,WUHU216HW,2013-06-12 16:00:00,
2013-06-12 09:05:00,90.5,35.4,27.39,ENE,68,0.9,1.8,15,0.00,,,0.00,WUHU216HW,2013-06-12 16:05:00,
2013-06-12 09:10:00,90.5,35.4,27.39,ENE,68,0.9,0.9,15,0.00,,,0.00,WUHU216HW,2013-06-12 16:10:00,
2013-06-12 09:30:00,92.5,33.4,27.38,SW,225,2.0,2.0,13,0.00,,,0.00,WUHU216HW,2013-06-12 16:30:00,
2013-06-12 09:35:00,92.5,33.4,27.38,WSW,248,1.3,2.5,13,0.00,,,0.00,WUHU216HW,2013-06-12 16:35:00,
2013-06-12 10:00:00,95.0,35.4,27.38,WNW,293,0.4,0.4,13,0.00,,,0.00,WUHU216HW,2013-06-12 17:00:00,
2013-06-12 10:05:00,95.0,35.4,27.37,WNW,293,2.0,2.0,13,0.00,,,0.00,WUHU216HW,2013-06-12 17:05:00,
2013-06-12 10:10:00,95.0,35.4,27.37,WNW,293,2.0,2.0,13,0.00,,,0.00,WUHU216HW,2013-06-12 17:10:00,
2013-06-12 10:30:00,96.1,34.4,27.37,SSW,203,2.0,2.0,12,0.00,,,0.00,WUHU216HW,2013-06-12 17:30:00,
2013-06-12 10:35:00,96.1,34.4,27.37,SE,135,1.3,2.0,12,0.00,,,0.00,WUHU216HW,2013-06-12 17:35:00,
2013-06-12 10:40:00,96.1,34.4,27.37,SE,135,1.3,2.0,12,0.00,,,0.00,WUHU216HW,2013-06-12 17:40:00,
2013-06-12 11:00:00,97.0,33.3,27.37,WSW,248,1.6,1.6,11,0.00,,,0.00,WUHU216HW,2013-06-12 18:00:00,
2013-06-12 11:05:00,97.0,33.3,27.37,NW,315,0.9,1.6,11,0.00,,,0.00,WUHU216HW,2013-06-12 18:05:00,
2013-06-12 11:10:00,97.0,33.3,27.37,NW,315,0.9,1.6,11,0.00,,,0.00,WUHU216HW,2013-06-12 18:10:00,
2013-06-12 11:30:00,99.0,34.8,27.36,SE,135,0.9,0.9,11,0.00,,,0.00,WUHU216HW,2013-06-12 18:30:00,
2013-06-12 11:35:00,99.0,34.8,27.36,South,180,1.1,1.1,11,0.00,,,0.00,WUHU216HW,2013-06-12 18:35:00,
2013-06-12 11:40:00,99.0,34.8,27.36,South,180,1.1,1.1,11,0.00,,,0.00,WUHU216HW,2013-06-12 18:40:00,
2013-06-12 12:00:00,100.6,34.3,27.35,WSW,248,2.5,2.5,10,0.00,,,0.00,WUHU216HW,2013-06-12 19:00:00,
2013-06-12 12:05:00,100.6,34.3,27.35,West,270,2.5,2.5,10,0.00,,,0.00,WUHU216HW,2013-06-12 19:05:00,
2013-06-12 12:10:00,100.6,34.3,27.35,West,270,2.5,2.5,10,0.00,,,0.00,WUHU216HW,2013-06-12 19:10:00,
2013-06-12 12:30:00,101.9,35.2,27.34,West,270,3.4,3.4,8,0.00,,,0.00,WUHU216HW,2013-06-12 19:30:00,
2013-06-12 12:35:00,101.9,35.2,27.34,SW,225,2.9,3.4,8,0.00,,,0.00,WUHU216HW,2013-06-12 19:35:00,
2013-06-12 12:40:00,101.9,35.2,27.34,SW,225,2.9,2.9,8,0.00,,,0.00,WUHU216HW,2013-06-12 19:40:00,
2013-06-12 13:00:00,103.5,36.5,27.32,WSW,248,2.7,2.7,8,0.00,,,0.00,WUHU216HW,2013-06-12 20:00:00,
2013-06-12 13:05:00,103.7,36.6,27.32,SW,225,4.7,4.7,8,0.00,,,0.00,WUHU216HW,2013-06-12 20:05:00,
2013-06-12 13:10:00,103.7,36.6,27.32,SW,225,4.7,4.7,8,0.00,,,0.00,WUHU216HW,2013-06-12 20:10:00,
2013-06-12 13:30:00,105.1,37.6,27.31,West,270,3.4,3.4,7,0.00,,,0.00,WUHU216HW,2013-06-12 20:30:00,
2013-06-12 13:35:00,105.1,37.6,27.31,West,270,3.4,3.4,7,0.00,,,0.00,WUHU216HW,2013-06-12 20:35:00,
2013-06-12 13:40:00,105.1,37.6,27.31,West,270,3.4,3.4,7,0.00,,,0.00,WUHU216HW,2013-06-12 20:40:00,
2013-06-12 14:00:00,105.8,38.2,27.30,SSE,158,2.7,2.7,7,0.00,,,0.00,WUHU216HW,2013-06-12 21:00:00,
2013-06-12 14:05:00,105.8,38.2,27.30,SSW,203,1.8,2.7,7,0.00,,,0.00,WUHU216HW,2013-06-12 21:05:00,
2013-06-12 14:10:00,105.8,38.2,27.30,SSW,203,1.8,2.7,7,0.00,,,0.00,WUHU216HW,2013-06-12 21:10:00,
2013-06-12 14:30:00,106.6,38.7,27.29,South,180,4.5,4.5,7,0.00,,,0.00,WUHU216HW,2013-06-12 21:30:00,
2013-06-12 14:35:00,106.6,38.7,27.29,West,270,5.6,5.6,7,0.00,,,0.00,WUHU216HW,2013-06-12 21:35:00,
2013-06-12 14:40:00,106.6,38.7,27.29,West,270,5.6,5.6,7,0.00,,,0.00,WUHU216HW,2013-06-12 21:40:00,
2013-06-12 15:00:00,106.7,38.9,27.27,WSW,248,3.1,3.1,7,0.00,,,0.00,WUHU216HW,2013-06-12 22:00:00,
2013-06-12 15:05:00,106.7,38.9,27.27,WSW,248,5.1,5.1,7,0.00,,,0.00,WUHU216HW,2013-06-12 22:05:00,
2013-06-12 15:30:00,106.9,39.1,27.27,WSW,248,3.8,3.8,7,0.00,,,0.00,WUHU216HW,2013-06-12 22:30:00,
2013-06-12 15:35:00,106.9,39.1,27.27,SW,225,3.6,3.8,7,0.00,,,0.00,WUHU216HW,2013-06-12 22:35:00,
2013-06-12 15:40:00,106.9,39.1,27.27,SW,225,3.6,3.8,7,0.00,,,0.00,WUHU216HW,2013-06-12 22:40:00,
2013-06-12 16:00:00,107.1,39.2,27.26,West,270,4.7,4.7,7,0.00,,,0.00,WUHU216HW,2013-06-12 23:00:00,
2013-06-12 16:05:00,106.9,39.1,27.26,West,270,4.5,4.7,7,0.00,,,0.00,WUHU216HW,2013-06-12 23:05:00,
2013-06-12 16:10:00,106.9,39.1,27.26,West,270,4.5,4.7,7,0.00,,,0.00,WUHU216HW,2013-06-12 23:10:00,
2013-06-12 16:30:00,106.6,38.7,27.25,West,270,3.1,3.1,7,0.00,,,0.00,WUHU216HW,2013-06-12 23:30:00,
2013-06-12 16:35:00,106.6,38.7,27.25,West,270,3.1,3.1,7,0.00,,,0.00,WUHU216HW,2013-06-12 23:35:00,
2013-06-12 16:40:00,106.6,38.7,27.25,West,270,3.1,3.1,7,0.00,,,0.00,WUHU216HW,2013-06-12 23:40:00,
2013-06-12 17:00:00,106.4,38.6,27.25,WSW,248,2.9,2.9,7,0.00,,,0.00,WUHU216HW,2013-06-13 00:00:00,
2013-06-12 17:05:00,106.4,38.6,27.25,WSW,248,2.5,2.9,7,0.00,,,0.00,WUHU216HW,2013-06-13 00:05:00,
2013-06-12 17:10:00,106.4,38.6,27.25,WSW,248,2.5,2.5,7,0.00,,,0.00,WUHU216HW,2013-06-13 00:10:00,
2013-06-12 17:30:00,105.3,37.8,27.24,WNW,293,4.7,4.7,7,0.00,,,0.00,WUHU216HW,2013-06-13 00:30:00,
2013-06-12 17:35:00,105.3,37.8,27.24,WSW,248,4.0,4.7,7,0.00,,,0.00,WUHU216HW,2013-06-13 00:35:00,
2013-06-12 18:00:00,105.1,37.6,27.25,WNW,293,4.3,4.3,7,0.00,,,0.00,WUHU216HW,2013-06-13 01:00:00,
2013-06-12 18:05:00,105.1,37.6,27.25,NW,315,5.6,5.6,7,0.00,,,0.00,WUHU216HW,2013-06-13 01:05:00,
2013-06-12 18:10:00,105.1,37.6,27.25,NW,315,5.6,5.6,7,0.00,,,0.00,WUHU216HW,2013-06-13 01:10:00,
2013-06-12 18:30:00,104.4,37.2,27.24,WSW,248,2.7,2.7,7,0.00,,,0.00,WUHU216HW,2013-06-13 01:30:00,
2013-06-12 18:35:00,104.4,37.2,27.24,West,270,2.5,2.7,7,0.00,,,0.00,WUHU216HW,2013-06-13 01:35:00,
2013-06-12 18:40:00,104.4,37.2,27.24,West,270,2.5,2.5,7,0.00,,,0.00,WUHU216HW,2013-06-13 01:40:00,
2013-06-12 19:00:00,103.1,36.2,27.25,WSW,248,1.8,1.8,7,0.00,,,0.00,WUHU216HW,2013-06-13 02:00:00,
2013-06-12 19:05:00,103.1,36.2,27.25,SW,225,2.2,2.2,7,0.00,,,0.00,WUHU216HW,2013-06-13 02:05:00,
2013-06-12 19:10:00,103.1,36.2,27.25,SW,225,2.2,2.2,7,0.00,,,0.00,WUHU216HW,2013-06-13 02:10:00,
2013-06-12 19:30:00,100.3,34.0,27.25,WNW,293,1.8,1.8,8,0.00,,,0.00,WUHU216HW,2013-06-13 02:30:00,
2013-06-12 19:35:00,100.1,33.9,27.25,WNW,293,1.8,1.8,8,0.00,,,0.00,WUHU216HW,2013-06-13 02:35:00,
2013-06-12 20:00:00,98.6,32.8,27.26,WSW,248,2.2,2.2,10,0.00,,,0.00,WUHU216HW,2013-06-13 03:00:00,
2013-06-12 20:05:00,98.6,32.8,27.26,WSW,248,1.8,2.2,10,0.00,,,0.00,WUHU216HW,2013-06-13 03:05:00,
2013-06-12 20:30:00,97.4,31.8,27.27,WSW,248,1.3,1.3,10,0.00,,,0.00,WUHU216HW,2013-06-13 03:30:00,
2013-06-12 20:35:00,97.4,31.8,27.27,WSW,248,1.1,1.3,10,0.00,,,0.00,WUHU216HW,2013-06-13 03:35:00,
2013-06-12 20:40:00,97.4,31.8,27.27,WSW,248,1.1,1.3,10,0.00,,,0.00,WUHU216HW,2013-06-13 03:40:00,
2013-06-12 21:00:00,96.1,30.8,27.28,NW,315,0.0,0.0,10,0.00,,,0.00,WUHU216HW,2013-06-13 04:00:00,
2013-06-12 21:01:00,96.1,30.8,27.28,NW,315,0.0,0.0,10,0.00,,,0.00,WUHU216HW,2013-06-13 04:01:00,
2013-06-12 21:06:00,96.1,30.8,27.28,NW,315,0.0,0.0,10,0.00,,,0.00,WUHU216HW,2013-06-13 04:06:00,
2013-06-12 21:30:00,93.2,32.1,27.28,NNE,23,0.0,0.0,12,0.00,,,0.00,WUHU216HW,2013-06-13 04:30:00,
2013-06-12 21:35:00,93.2,32.1,27.28,NNE,23,0.0,0.0,12,0.00,,,0.00,WUHU216HW,2013-06-13 04:35:00,
2013-06-12 22:00:00,90.4,35.2,27.28,SE,135,0.9,0.9,15,0.00,,,0.00,WUHU216HW,2013-06-13 05:00:00,
2013-06-12 22:05:00,90.4,35.2,27.28,SE,135,1.6,1.6,15,0.00,,,0.00,WUHU216HW,2013-06-13 05:05:00,
2013-06-12 22:10:00,90.4,35.2,27.28,SE,135,1.6,1.6,15,0.00,,,0.00,WUHU216HW,2013-06-13 05:10:00,
2013-06-12 22:30:00,88.9,30.6,27.28,NE,45,0.7,0.7,13,0.00,,,0.00,WUHU216HW,2013-06-13 05:30:00,
2013-06-12 22:35:00,88.9,30.6,27.28,NE,45,0.7,0.7,13,0.00,,,0.00,WUHU216HW,2013-06-13 05:35:00,
2013-06-12 23:00:00,87.8,29.9,27.28,ENE,68,0.0,0.0,13,0.00,,,0.00,WUHU216HW,2013-06-13 06:00:00,
2013-06-12 23:05:00,87.8,29.9,27.28,ENE,68,0.4,0.4,13,0.00,,,0.00,WUHU216HW,2013-06-13 06:05:00,
2013-06-12 23:10:00,87.8,29.9,27.28,ENE,68,0.4,0.4,13,0.00,,,0.00,WUHU216HW,2013-06-13 06:10:00,
2013-06-12 23:30:00,87.3,32.9,27.28,NE,45,0.4,0.4,15,0.00,,,0.00,WUHU216HW,2013-06-13 06:30:00,
2013-06-12 23:35:00,87.3,32.9,27.28,ENE,68,0.7,0.7,15,0.00,,,0.00,WUHU216HW,2013-06-13 06:35:00,